Volver al catálogo

STARLINK-36043

ActivoComunicacionesVLEO
NORAD 66901·PAYLOAD·🇺🇸 United States

Lanzado Dec 4, 2025 desde Vandenberg Space Force Base

Loading…

Próximos Pases (próximas 24 horas)

TLE

ActualizadoSource: CelesTrak SupGP

Época: Sep 14, 2026, 23:02 UTC

1 66901C 25283Z   26257.96020833  .00002155  00000+0  63662-4 0  2571
2 66901  53.1581 221.3018 0001438  90.4641 311.6833 15.34393948    19

Sigue STARLINK-36043 en tiempo real con AllMySat

Download on the App Store